Location: Strada George Coșbuc
(47.6577°N, 23.5639°E)
Time: 15:18:14
(UTC+02:00)

ISS - Pass Details

Date: 05 October 2017
Orbit: 402 x 407 km, 51.6° (Epoch: 23 November)

Event Time Altitude Azimuth Distance (km) Brightness Sun altitude
Rises 19:47:54 0° 275° (W) 2,331 2.5 -9.4°
Reaches altitude 10° 19:50:04 10° 283° (WNW) 1,473 0.6 -9.8°
Maximum altitude 19:53:13 40° 355° (N) 616 -2.9 -10.3°
Enters shadow 19:55:52 13° 64° (ENE) 1,287 -1.8 -10.7°
